Weather History for KAZO - December, 2008

Change the Weather History Date:

Friday, December 26, 2008

  Actual Average Record
Temperature  
Mean Temperature 31 °F 26 °F  
Max Temperature 43 °F 32 °F 65 °F (1982)
Min Temperature 21 °F 20 °F -10 °F (1983)
Degree Days  
Heating Degree Days 34 39  
Month to date heating degree days 926  
Since 1 July heating degree days 2253  
Cooling Degree Days 0 0  
Month to date cooling degree days 0  
Year to date cooling degree days 675  
Moisture  
Dew Point 29 °F    
Average Humidity 86    
Maximum Humidity 100    
Minimum Humidity 69    
Precipitation  
Precipitation 0.05 in 0.04 in 0.40 in (1949)
Month to date precipitation 1.71  
Year to date precipitation 35.47  
Snow  
Snow 0.00 in - - ()
Snow Depth 5.00 in    
Sea Level Pressure  
Sea Level Pressure 30.06 in    
Wind  
Wind Speed 9 mph (SSE)    
Max Wind Speed 14 mph    
Max Gust Speed 24 mph    
Visibility 3 miles    
Events Fog , Rain    
T = Trace of Precipitation, MM = Missing Value Source: NWS Daily Summary

Daily Weather History Graph

Daily Weather History Graph

Search for Another Location

Airport or City:

Trip Planner

Search our weather history database for the weather conditions in past years. The results will help you decide how hot, cold, wet, or windy it might be!

Date:

Astronomy

Dec. 26, 2008 Rise Set
Actual Time 8:09 AM EST 5:16 PM EST
Civil Twilight 7:38 AM EST 5:48 PM EST
Nautical Twilight 7:02 AM EST 6:23 PM EST
Astronomical Twilight 6:28 AM EST 6:57 PM EST
Moon 7:46 AM EST (12/26) 4:23 PM EST (12/26)
Length of Visible Light 10h 10m
Length of Day
9h 06m
Waning Crescent, 1% of the Moon is Illuminated
Dec 26
Waning Crescent
Dec 27
New
Jan 4
First Quarter
Jan 10
Full
Jan 17
Last Quarter

Hourly Weather History & Observations

Time (EST) Temp. Windchill Dew Point Humidity Pressure Visibility Wind Dir Wind Speed Gust Speed Precip Events Conditions
12:53 AM 21.0 °F 11.4 °F 12.9 °F 71% 30.33 in 7.0 mi SE 8.1 mph 17.3 mph N/A   Overcast
1:53 AM 21.9 °F 11.7 °F 14.0 °F 72% 30.31 in 7.0 mi SE 9.2 mph - N/A   Overcast
2:53 AM 23.0 °F 13.9 °F 15.1 °F 72% 30.31 in 7.0 mi SE 8.1 mph - N/A   Overcast
3:53 AM 24.1 °F 16.0 °F 15.1 °F 69% 30.30 in 7.0 mi ESE 6.9 mph - N/A   Overcast
4:53 AM 24.1 °F 14.4 °F 15.1 °F 69% 30.25 in 7.0 mi SE 9.2 mph - N/A   Overcast
5:53 AM 25.0 °F 15.5 °F 17.1 °F 72% 30.22 in 7.0 mi SSE 9.2 mph - N/A   Overcast
6:01 AM 24.8 °F 14.6 °F 17.6 °F 74% 30.17 in 6.0 mi SE 10.4 mph 17.3 mph 0.00 in   Light Ice Pellets
6:32 AM 26.6 °F 15.2 °F 19.4 °F 74% 30.14 in 3.0 mi SE 13.8 mph 20.7 mph 0.02 in Rain Light Freezing Rain
6:53 AM 26.1 °F 15.0 °F 19.9 °F 78% 30.16 in 5.0 mi SE 12.7 mph 24.2 mph 0.03 in Rain Light Freezing Rain
7:53 AM 28.0 °F 20.0 °F 23.0 °F 81% 30.17 in 5.0 mi ESE 8.1 mph - 0.02 in Rain Light Freezing Rain
8:23 AM 28.4 °F 21.2 °F 24.8 °F 86% 30.13 in 4.0 mi East 6.9 mph - 0.00 in Rain Light Freezing Rain
8:42 AM 28.4 °F 20.4 °F 23.0 °F 80% 30.12 in 4.0 mi ESE 8.1 mph - 0.00 in Rain Light Freezing Rain
8:53 AM 28.9 °F 20.4 °F 24.1 °F 82% 30.16 in 4.0 mi East 9.2 mph - 0.00 in Rain Light Freezing Rain
9:35 AM 28.4 °F 20.4 °F 24.8 °F 86% 30.10 in 7.0 mi SE 8.1 mph - 0.00 in   Overcast
9:48 AM 28.4 °F 19.1 °F 24.8 °F 86% 30.09 in 7.0 mi SE 10.4 mph - 0.00 in Rain Light Freezing Rain
9:53 AM 28.9 °F 20.4 °F 24.1 °F 82% 30.13 in 7.0 mi SE 9.2 mph - 0.00 in Rain Light Freezing Rain
10:07 AM 30.2 °F 22.6 °F 24.8 °F 80% 30.08 in 4.0 mi SE 8.1 mph - 0.00 in   Haze
10:53 AM 30.9 °F 22.8 °F 26.1 °F 82% 30.13 in 5.0 mi SSE 9.2 mph - 0.00 in   Haze
11:53 AM 32.0 °F 23.0 °F 27.0 °F 82% 30.10 in 5.0 mi SSE 11.5 mph 20.7 mph N/A   Haze
12:53 PM 32.0 °F 23.6 °F 28.0 °F 85% 30.08 in 3.0 mi SSE 10.4 mph - N/A   Overcast
1:53 PM 33.1 °F 24.9 °F 30.0 °F 89% 30.05 in 3.0 mi South 10.4 mph - N/A   Overcast
2:00 PM 33.8 °F 24.8 °F 30.2 °F 87% 30.01 in 1.0 mi South 12.7 mph - N/A   Overcast
2:10 PM 33.8 °F 26.4 °F 30.2 °F 87% 30.01 in 0.8 mi SSE 9.2 mph - N/A   Overcast
2:53 PM 33.1 °F 26.9 °F 30.9 °F 92% 30.04 in 0.5 mi South 6.9 mph - N/A Fog Fog
3:53 PM 34.0 °F 27.2 °F 32.0 °F 92% 30.03 in 0.5 mi SSE 8.1 mph - 0.00 in Fog Light Drizzle
4:22 PM 33.8 °F 26.4 °F 32.0 °F 93% 29.99 in 0.2 mi SSE 9.2 mph - 0.00 in Fog Light Drizzle
4:53 PM 35.1 °F 28.6 °F 33.1 °F 92% 30.02 in 0.2 mi South 8.1 mph - 0.00 in Fog Light Drizzle
5:01 PM 35.6 °F 28.6 °F 33.8 °F 93% 29.98 in 0.5 mi South 9.2 mph - 0.00 in Fog Light Drizzle
5:28 PM 35.6 °F 29.2 °F 33.8 °F 93% 29.98 in 1.5 mi South 8.1 mph - 0.00 in   Light Drizzle
5:53 PM 36.0 °F 29.6 °F 34.0 °F 93% 30.01 in 2.0 mi South 8.1 mph - 0.00 in   Light Drizzle
6:05 PM 35.6 °F 29.2 °F 33.8 °F 93% 29.97 in 1.8 mi South 8.1 mph - 0.00 in   Light Drizzle
6:26 PM 35.6 °F 28.6 °F 33.8 °F 93% 29.97 in 2.0 mi South 9.2 mph - 0.00 in   Light Drizzle
6:53 PM 37.0 °F 30.4 °F 35.1 °F 93% 30.00 in 1.8 mi South 9.2 mph - 0.00 in   Light Drizzle
7:17 PM 37.4 °F 31.4 °F 35.6 °F 93% 29.97 in 2.5 mi South 8.1 mph - 0.00 in   Overcast
7:28 PM 37.4 °F 30.3 °F 35.6 °F 93% 29.96 in 3.0 mi South 10.4 mph - 0.00 in   Overcast
7:53 PM 37.0 °F 29.8 °F 36.0 °F 96% 29.99 in 2.5 mi South 10.4 mph - 0.00 in   Overcast
8:00 PM 37.4 °F 31.4 °F 35.6 °F 93% 29.96 in 1.8 mi South 8.1 mph - N/A   Overcast
8:38 PM 37.4 °F 30.8 °F 35.6 °F 93% 29.95 in 0.5 mi South 9.2 mph - N/A Fog Fog
8:53 PM 39.0 °F 32.8 °F 37.0 °F 93% 29.97 in 1.0 mi South 9.2 mph - 0.00 in   Light Drizzle
9:00 PM 39.2 °F 32.5 °F 37.4 °F 93% 29.94 in 0.5 mi South 10.4 mph - 0.00 in   Light Drizzle
9:20 PM 39.2 °F 32.5 °F 37.4 °F 93% 29.94 in 1.0 mi South 10.4 mph - 0.00 in   Light Drizzle
9:38 PM 39.2 °F 32.5 °F 37.4 °F 93% 29.93 in 0.2 mi South 10.4 mph - 0.00 in Fog Fog
9:53 PM 39.0 °F 31.8 °F 37.9 °F 96% 29.96 in 0.2 mi South 11.5 mph - 0.00 in Fog Fog
10:33 PM 39.2 °F 32.0 °F 39.2 °F 100% 29.93 in 0.2 mi South 11.5 mph - N/A Fog Fog
10:53 PM 41.0 °F 33.9 °F 39.9 °F 96% 29.95 in 0.2 mi South 12.7 mph - N/A Fog Fog
11:53 PM 43.0 °F 36.0 °F 41.0 °F 93% 29.94 in 0.2 mi South 13.8 mph - N/A Fog Fog